Zurück zum Katalog

TAURUS R/B

AktivPO
NORAD 28255·ROCKET BODY·🇺🇸 United States

Gestartet May 20, 2004 von Vandenberg Space Force Base

Loading…

Nächste Überflüge (nächste 24 Stunden)

TLE

AktuellSource: Space-Track

Epoche: Sep 14, 2026, 06:23 UTC

1 28255U 04018B   26257.26600699  .00000158  00000-0  51906-4 0  9994
2 28255  99.0822   8.0564 0014352  37.0089 323.2091 14.52131673181114

Verfolge TAURUS R/B in Echtzeit mit AllMySat

Download on the App Store